Location: Newark
(13.6797°N, 8.5297°E)
Time: 11:34:14
(UTC+00:00)

Starlink Launch 2 leader - Visible Passes

Search period start: 15 December 2019 00:00
Search period end: 25 December 2019 00:00
Orbit: 279 x 281 km, 53.0° (Epoch: 13 November)

Date Brightness Start Highest point End Pass type
(mag) Time Alt. Az. Time Alt. Az. Time Alt. Az.
15 Dec 4.5 18:28:48 10° WSW 18:30:20 26° W 18:30:20 26° W visible
16 Dec 5.2 04:06:42 17° ENE 04:06:42 17° ENE 04:07:50 10° ESE visible
16 Dec 5.4 18:31:57 10° WNW 18:32:55 12° NW 18:32:55 12° NW visible
17 Dec 4.9 04:09:18 21° SE 04:09:18 21° SE 04:10:18 10° SE visible
18 Dec 5.5 04:11:55 10° S 04:11:55 10° S 04:11:57 10° S visible
